Year,Month,Day,Hour,Minute,Value (Times are PST for temperature in C)
2017,08,16,00,00,15.10
2017,08,16,00,01,15.10
2017,08,16,00,02,15.10
2017,08,16,00,03,15.10
2017,08,16,00,04,15.10
2017,08,16,00,05,15.10
2017,08,16,00,06,15.10
2017,08,16,00,07,15.10
2017,08,16,00,08,15.10
2017,08,16,00,09,15.10
2017,08,16,00,10,15.10
2017,08,16,00,11,15.10
2017,08,16,00,12,15.10
2017,08,16,00,13,15.10
2017,08,16,00,14,15.10
2017,08,16,00,15,15.10
2017,08,16,00,16,15.10
2017,08,16,00,17,15.10
2017,08,16,00,18,15.10
2017,08,16,00,19,15.10
2017,08,16,00,20,15.10
2017,08,16,00,21,15.00
2017,08,16,00,22,15.00
2017,08,16,00,23,15.00
2017,08,16,00,24,15.00
2017,08,16,00,25,15.00
2017,08,16,00,26,15.00
2017,08,16,00,27,15.00
2017,08,16,00,28,14.90
2017,08,16,00,29,14.90
2017,08,16,00,30,14.90
2017,08,16,00,31,14.90
2017,08,16,00,32,14.90
2017,08,16,00,33,14.90
2017,08,16,00,34,14.90
2017,08,16,00,35,14.80
2017,08,16,00,36,14.80
2017,08,16,00,37,14.80
2017,08,16,00,38,14.80
2017,08,16,00,39,14.80
2017,08,16,00,40,14.80
2017,08,16,00,41,14.80
2017,08,16,00,42,14.80
2017,08,16,00,43,14.80
2017,08,16,00,44,14.80
2017,08,16,00,45,14.80
2017,08,16,00,46,14.70
2017,08,16,00,47,14.70
2017,08,16,00,48,14.70
2017,08,16,00,49,14.70
2017,08,16,00,50,14.70
2017,08,16,00,51,14.70
2017,08,16,00,52,14.60
2017,08,16,00,53,14.60
2017,08,16,00,54,14.60
2017,08,16,00,55,14.60
2017,08,16,00,56,14.60
2017,08,16,00,57,14.60
2017,08,16,00,58,14.60
2017,08,16,00,59,14.60
2017,08,16,01,00,14.60
2017,08,16,01,01,14.60
2017,08,16,01,02,14.60
2017,08,16,01,03,14.60
2017,08,16,01,04,14.50
2017,08,16,01,05,14.50
2017,08,16,01,06,14.50
2017,08,16,01,07,14.50
2017,08,16,01,08,14.50
2017,08,16,01,09,14.50
2017,08,16,01,10,14.50
2017,08,16,01,11,14.40
2017,08,16,01,12,14.40
2017,08,16,01,13,14.40
2017,08,16,01,14,14.40
2017,08,16,01,15,14.40
2017,08,16,01,16,14.30
2017,08,16,01,17,14.30
2017,08,16,01,18,14.30
2017,08,16,01,19,14.30
2017,08,16,01,20,14.20
2017,08,16,01,21,14.20
2017,08,16,01,22,14.20
2017,08,16,01,23,14.20
2017,08,16,01,24,14.20
2017,08,16,01,25,14.20
2017,08,16,01,26,14.10
2017,08,16,01,27,14.10
2017,08,16,01,28,14.10
2017,08,16,01,29,14.10
2017,08,16,01,30,14.00
2017,08,16,01,31,14.00
2017,08,16,01,32,14.00
2017,08,16,01,33,14.00
2017,08,16,01,34,14.00
2017,08,16,01,35,14.00
2017,08,16,01,36,14.00
2017,08,16,01,37,14.00
2017,08,16,01,38,13.90
2017,08,16,01,39,13.90
2017,08,16,01,40,13.90
2017,08,16,01,41,13.90
2017,08,16,01,42,13.90
2017,08,16,01,43,13.90
2017,08,16,01,44,13.90
2017,08,16,01,45,13.90
2017,08,16,01,46,13.90
2017,08,16,01,47,13.80
2017,08,16,01,48,13.80
2017,08,16,01,49,13.80
2017,08,16,01,50,13.80
2017,08,16,01,51,13.80
2017,08,16,01,52,13.80
2017,08,16,01,53,13.80
2017,08,16,01,54,13.80
2017,08,16,01,55,13.80
2017,08,16,01,56,13.80
2017,08,16,01,57,13.80
2017,08,16,01,58,13.80
2017,08,16,01,59,13.80
2017,08,16,02,00,13.80
2017,08,16,02,01,13.80
2017,08,16,02,02,13.70
2017,08,16,02,03,13.70
2017,08,16,02,04,13.70
2017,08,16,02,05,13.70
2017,08,16,02,06,13.70
2017,08,16,02,07,13.70
2017,08,16,02,08,13.70
2017,08,16,02,09,13.70
2017,08,16,02,10,13.70
2017,08,16,02,11,13.70
2017,08,16,02,12,13.70
2017,08,16,02,13,13.70
2017,08,16,02,14,13.70
2017,08,16,02,15,13.70
2017,08,16,02,16,13.70
2017,08,16,02,17,13.70
2017,08,16,02,18,13.70
2017,08,16,02,19,13.70
2017,08,16,02,20,13.70
2017,08,16,02,21,13.70
2017,08,16,02,22,13.70
2017,08,16,02,23,13.70
2017,08,16,02,24,13.70
2017,08,16,02,25,13.70
2017,08,16,02,26,13.70
2017,08,16,02,27,13.70
2017,08,16,02,28,13.70
2017,08,16,02,29,13.70
2017,08,16,02,30,13.70
2017,08,16,02,31,13.70
2017,08,16,02,32,13.70
2017,08,16,02,33,13.70
2017,08,16,02,34,13.70
2017,08,16,02,35,13.70
2017,08,16,02,36,13.70
2017,08,16,02,37,13.70
2017,08,16,02,38,13.70
2017,08,16,02,39,13.70
2017,08,16,02,40,13.70
2017,08,16,02,41,13.70
2017,08,16,02,42,13.70
2017,08,16,02,43,13.70
2017,08,16,02,44,13.60
2017,08,16,02,45,13.60
2017,08,16,02,46,13.60
2017,08,16,02,47,13.60
2017,08,16,02,48,13.60
2017,08,16,02,49,13.60
2017,08,16,02,50,13.60
2017,08,16,02,51,13.60
2017,08,16,02,52,13.60
2017,08,16,02,53,13.60
2017,08,16,02,54,13.60
2017,08,16,02,55,13.60
2017,08,16,02,56,13.60
2017,08,16,02,57,13.60
2017,08,16,02,58,13.60
2017,08,16,02,59,13.60
2017,08,16,03,00,13.50
2017,08,16,03,01,13.50
2017,08,16,03,02,13.50
2017,08,16,03,03,13.50
2017,08,16,03,04,13.50
2017,08,16,03,05,13.50
2017,08,16,03,06,13.50
2017,08,16,03,07,13.50
2017,08,16,03,08,13.50
2017,08,16,03,09,13.50
2017,08,16,03,10,13.50
2017,08,16,03,11,13.50
2017,08,16,03,12,13.50
2017,08,16,03,13,13.50
2017,08,16,03,14,13.50
2017,08,16,03,15,13.50
2017,08,16,03,16,13.50
2017,08,16,03,17,13.50
2017,08,16,03,18,13.50
2017,08,16,03,19,13.50
2017,08,16,03,20,13.40
2017,08,16,03,21,13.40
2017,08,16,03,22,13.40
2017,08,16,03,23,13.40
2017,08,16,03,24,13.40
2017,08,16,03,25,13.40
2017,08,16,03,26,13.40
2017,08,16,03,27,13.40
2017,08,16,03,28,13.40
2017,08,16,03,29,13.40
2017,08,16,03,30,13.40
2017,08,16,03,31,13.40
2017,08,16,03,32,13.40
2017,08,16,03,33,13.40
2017,08,16,03,34,13.40
2017,08,16,03,35,13.40
2017,08,16,03,36,13.40
2017,08,16,03,37,13.40
2017,08,16,03,38,13.40
2017,08,16,03,39,13.40
2017,08,16,03,40,13.40
2017,08,16,03,41,13.30
2017,08,16,03,42,13.30
2017,08,16,03,43,13.40
2017,08,16,03,44,13.40
2017,08,16,03,45,13.40
2017,08,16,03,46,13.40
2017,08,16,03,47,13.40
2017,08,16,03,48,13.40
2017,08,16,03,49,13.30
2017,08,16,03,50,13.30
2017,08,16,03,51,13.30
2017,08,16,03,52,13.30
2017,08,16,03,53,13.30
2017,08,16,03,54,13.30
2017,08,16,03,55,13.30
2017,08,16,03,56,13.30
2017,08,16,03,57,13.30
2017,08,16,03,58,13.30
2017,08,16,03,59,13.30
2017,08,16,04,00,13.30
2017,08,16,04,01,13.30
2017,08,16,04,02,13.30
2017,08,16,04,03,13.30
2017,08,16,04,04,13.30
2017,08,16,04,05,13.30
2017,08,16,04,06,13.30
2017,08,16,04,07,13.30
2017,08,16,04,08,13.30
2017,08,16,04,09,13.30
2017,08,16,04,10,13.30
2017,08,16,04,11,13.30
2017,08,16,04,12,13.30
2017,08,16,04,13,13.30
2017,08,16,04,14,13.30
2017,08,16,04,15,13.30
2017,08,16,04,16,13.30
2017,08,16,04,17,13.30
2017,08,16,04,18,13.30
2017,08,16,04,19,13.30
2017,08,16,04,20,13.30
2017,08,16,04,21,13.30
2017,08,16,04,22,13.30
2017,08,16,04,23,13.30
2017,08,16,04,24,13.30
2017,08,16,04,25,13.30
2017,08,16,04,26,13.30
2017,08,16,04,27,13.30
2017,08,16,04,28,13.30
2017,08,16,04,29,13.30
2017,08,16,04,30,13.30
2017,08,16,04,31,13.30
2017,08,16,04,32,13.30
2017,08,16,04,33,13.30
2017,08,16,04,34,13.30
2017,08,16,04,35,13.30
2017,08,16,04,36,13.30
2017,08,16,04,37,13.30
2017,08,16,04,38,13.30
2017,08,16,04,39,13.30
2017,08,16,04,40,13.30
2017,08,16,04,41,13.30
2017,08,16,04,42,13.30
2017,08,16,04,43,13.30
2017,08,16,04,44,13.30
2017,08,16,04,45,13.30
2017,08,16,04,46,13.30
2017,08,16,04,47,13.30
2017,08,16,04,48,13.30
2017,08,16,04,49,13.30
2017,08,16,04,50,13.30
2017,08,16,04,51,13.30
2017,08,16,04,52,13.30
2017,08,16,04,53,13.30
2017,08,16,04,54,13.30
2017,08,16,04,55,13.30
2017,08,16,04,56,13.30
2017,08,16,04,57,13.30
2017,08,16,04,58,13.30
2017,08,16,04,59,13.30
2017,08,16,05,00,13.30
2017,08,16,05,01,13.30
2017,08,16,05,02,13.30
2017,08,16,05,03,13.30
2017,08,16,05,04,13.30
2017,08,16,05,05,13.30
2017,08,16,05,06,13.30
2017,08,16,05,07,13.30
2017,08,16,05,08,13.30
2017,08,16,05,09,13.30
2017,08,16,05,10,13.30
2017,08,16,05,11,13.30
2017,08,16,05,12,13.30
2017,08,16,05,13,13.30
2017,08,16,05,14,13.30
2017,08,16,05,15,13.30
2017,08,16,05,16,13.30
2017,08,16,05,17,13.30
2017,08,16,05,18,13.30
2017,08,16,05,19,13.30
2017,08,16,05,20,13.30
2017,08,16,05,21,13.30
2017,08,16,05,22,13.30
2017,08,16,05,23,13.30
2017,08,16,05,24,13.30
2017,08,16,05,25,13.30
2017,08,16,05,26,13.30
2017,08,16,05,27,13.30
2017,08,16,05,28,13.30
2017,08,16,05,29,13.30
2017,08,16,05,30,13.30
2017,08,16,05,31,13.30
2017,08,16,05,32,13.30
2017,08,16,05,33,13.30
2017,08,16,05,34,13.30
2017,08,16,05,35,13.30
2017,08,16,05,36,13.30
2017,08,16,05,37,13.30
2017,08,16,05,38,13.30
2017,08,16,05,39,13.30
2017,08,16,05,40,13.30
2017,08,16,05,41,13.30
2017,08,16,05,42,13.30
2017,08,16,05,43,13.30
2017,08,16,05,44,13.30
2017,08,16,05,45,13.30
2017,08,16,05,46,13.30
2017,08,16,05,47,13.30
2017,08,16,05,48,13.30
2017,08,16,05,49,13.30
2017,08,16,05,50,13.30
2017,08,16,05,51,13.30
2017,08,16,05,52,13.30
2017,08,16,05,53,13.40
2017,08,16,05,54,13.40
2017,08,16,05,55,13.40
2017,08,16,05,56,13.40
2017,08,16,05,57,13.40
2017,08,16,05,58,13.40
2017,08,16,05,59,13.40
2017,08,16,06,00,13.40
2017,08,16,06,01,13.40
2017,08,16,06,02,13.40
2017,08,16,06,03,13.40
2017,08,16,06,04,13.40
2017,08,16,06,05,13.40
2017,08,16,06,06,13.40
2017,08,16,06,07,13.40
2017,08,16,06,08,13.40
2017,08,16,06,09,13.40
2017,08,16,06,10,13.40
2017,08,16,06,11,13.40
2017,08,16,06,12,13.40
2017,08,16,06,13,13.40
2017,08,16,06,14,13.40
2017,08,16,06,15,13.40
2017,08,16,06,16,13.40
2017,08,16,06,17,13.40
2017,08,16,06,18,13.40
2017,08,16,06,19,13.40
2017,08,16,06,20,13.40
2017,08,16,06,21,13.40
2017,08,16,06,22,13.30
2017,08,16,06,23,13.30
2017,08,16,06,24,13.30
2017,08,16,06,25,13.30
2017,08,16,06,26,13.30
2017,08,16,06,27,13.30
2017,08,16,06,28,13.30
2017,08,16,06,29,13.30
2017,08,16,06,30,13.30
2017,08,16,06,31,13.30
2017,08,16,06,32,13.30
2017,08,16,06,33,13.30
2017,08,16,06,34,13.40
2017,08,16,06,35,13.40
2017,08,16,06,36,13.40
2017,08,16,06,37,13.40
2017,08,16,06,38,13.40
2017,08,16,06,39,13.40
2017,08,16,06,40,13.40
2017,08,16,06,41,13.40
2017,08,16,06,42,13.40
2017,08,16,06,43,13.40
2017,08,16,06,44,13.40
2017,08,16,06,45,13.50
2017,08,16,06,46,13.50
2017,08,16,06,47,13.50
2017,08,16,06,48,13.50
2017,08,16,06,49,13.50
2017,08,16,06,50,13.50
2017,08,16,06,51,13.60
2017,08,16,06,52,13.60
2017,08,16,06,53,13.60
2017,08,16,06,54,13.70
2017,08,16,06,55,13.70
2017,08,16,06,56,13.70
2017,08,16,06,57,13.70
2017,08,16,06,58,13.70
2017,08,16,06,59,13.80
2017,08,16,07,00,13.80
2017,08,16,07,01,13.80
2017,08,16,07,02,13.90
2017,08,16,07,03,13.90
2017,08,16,07,04,13.90
2017,08,16,07,05,13.90
2017,08,16,07,06,14.00
2017,08,16,07,07,14.00
2017,08,16,07,08,14.10
2017,08,16,07,09,14.10
2017,08,16,07,10,14.20
2017,08,16,07,11,14.20
2017,08,16,07,12,14.20
2017,08,16,07,13,14.30
2017,08,16,07,14,14.30
2017,08,16,07,15,14.30
2017,08,16,07,16,14.30
2017,08,16,07,17,14.40
2017,08,16,07,18,14.40
2017,08,16,07,19,14.40
2017,08,16,07,20,14.50
2017,08,16,07,21,14.50
2017,08,16,07,22,14.50
2017,08,16,07,23,14.50
2017,08,16,07,24,14.50
2017,08,16,07,25,14.50
2017,08,16,07,26,14.60
2017,08,16,07,27,14.60
2017,08,16,07,28,14.60
2017,08,16,07,29,14.60
2017,08,16,07,30,14.70
2017,08,16,07,31,14.70
2017,08,16,07,32,14.70
2017,08,16,07,33,14.80
2017,08,16,07,34,14.80
2017,08,16,07,35,14.80
2017,08,16,07,36,14.80
2017,08,16,07,37,14.80
2017,08,16,07,38,14.80
2017,08,16,07,39,14.90
2017,08,16,07,40,14.90
2017,08,16,07,41,15.00
2017,08,16,07,42,15.00
2017,08,16,07,43,15.10
2017,08,16,07,44,15.20
2017,08,16,07,45,15.40
2017,08,16,07,46,15.50
2017,08,16,07,47,15.60
2017,08,16,07,48,15.60
2017,08,16,07,49,15.50
2017,08,16,07,50,15.50
2017,08,16,07,51,15.50
2017,08,16,07,52,15.40
2017,08,16,07,53,15.40
2017,08,16,07,54,15.40
2017,08,16,07,55,15.40
2017,08,16,07,56,15.40
2017,08,16,07,57,15.40
2017,08,16,07,58,15.40
2017,08,16,07,59,15.40
2017,08,16,08,00,15.50
2017,08,16,08,01,15.50
2017,08,16,08,02,15.60
2017,08,16,08,03,15.60
2017,08,16,08,04,15.60
2017,08,16,08,05,15.60
2017,08,16,08,06,15.70
2017,08,16,08,07,15.80
2017,08,16,08,08,15.80
2017,08,16,08,09,15.80
2017,08,16,08,10,15.80
2017,08,16,08,11,15.80
2017,08,16,08,12,15.80
2017,08,16,08,13,15.80
2017,08,16,08,14,15.80
2017,08,16,08,15,15.80
2017,08,16,08,16,15.80
2017,08,16,08,17,15.80
2017,08,16,08,18,15.80
2017,08,16,08,19,15.80
2017,08,16,08,20,15.90
2017,08,16,08,21,15.90
2017,08,16,08,22,16.00
2017,08,16,08,23,16.10
2017,08,16,08,24,16.10
2017,08,16,08,25,16.10
2017,08,16,08,26,16.10
2017,08,16,08,27,16.10
2017,08,16,08,28,16.10
2017,08,16,08,29,16.10
2017,08,16,08,30,16.20
2017,08,16,08,31,16.20
2017,08,16,08,32,16.30
2017,08,16,08,33,16.30
2017,08,16,08,34,16.30
2017,08,16,08,35,16.40
2017,08,16,08,36,16.40
2017,08,16,08,37,16.40
2017,08,16,08,38,16.40
2017,08,16,08,39,16.40
2017,08,16,08,40,16.40
2017,08,16,08,41,16.50
2017,08,16,08,42,16.60
2017,08,16,08,43,16.60
2017,08,16,08,44,16.60
2017,08,16,08,45,16.60
2017,08,16,08,46,16.70
2017,08,16,08,47,16.70
2017,08,16,08,48,16.80
2017,08,16,08,49,16.90
2017,08,16,08,50,16.90
2017,08,16,08,51,16.90
2017,08,16,08,52,16.90
2017,08,16,08,53,16.90
2017,08,16,08,54,16.90
2017,08,16,11,09,17.20
2017,08,16,11,10,17.20
2017,08,16,11,11,17.30
2017,08,16,11,12,17.30
2017,08,16,11,13,17.30
2017,08,16,11,14,17.30
2017,08,16,11,15,17.30
2017,08,16,11,16,17.30
2017,08,16,11,17,17.30
2017,08,16,11,18,17.30
2017,08,16,11,19,17.30
2017,08,16,11,20,17.30
2017,08,16,11,21,17.30
2017,08,16,11,22,17.30
2017,08,16,11,23,17.30
2017,08,16,11,24,17.30
2017,08,16,11,25,17.30
2017,08,16,11,26,17.30
2017,08,16,11,27,17.30
2017,08,16,11,28,17.40
2017,08,16,11,29,17.40
2017,08,16,11,30,17.40
2017,08,16,11,31,17.30
2017,08,16,11,32,17.30
2017,08,16,11,33,17.30
2017,08,16,11,34,17.30
2017,08,16,11,35,17.30
2017,08,16,11,36,17.40
2017,08,16,11,37,17.40
2017,08,16,11,38,17.40
2017,08,16,11,39,17.40
2017,08,16,11,40,17.40
2017,08,16,11,41,17.40
2017,08,16,11,42,17.40
2017,08,16,11,43,17.30
2017,08,16,11,44,17.30
2017,08,16,11,45,17.30
2017,08,16,11,46,17.30
2017,08,16,11,47,17.30
2017,08,16,11,48,17.30
2017,08,16,11,49,17.40
2017,08,16,11,50,17.40
2017,08,16,11,51,17.50
2017,08,16,11,52,17.50
2017,08,16,11,53,17.50
2017,08,16,11,54,17.60
2017,08,16,11,55,17.60
2017,08,16,11,56,17.60
2017,08,16,11,57,17.60
2017,08,16,11,58,17.60
2017,08,16,11,59,17.60
2017,08,16,12,00,17.70
2017,08,16,12,01,17.60
2017,08,16,12,02,17.50
2017,08,16,12,03,17.50
2017,08,16,12,04,17.50
2017,08,16,12,05,17.40
2017,08,16,12,06,17.40
2017,08,16,12,07,17.40
2017,08,16,12,08,17.40
2017,08,16,12,09,17.50
2017,08,16,12,10,17.60
2017,08,16,12,11,17.70
2017,08,16,12,12,17.70
2017,08,16,12,13,17.70
2017,08,16,12,14,17.80
2017,08,16,12,15,17.80
2017,08,16,12,16,17.80
2017,08,16,12,17,17.70
2017,08,16,12,18,17.70
2017,08,16,12,19,17.70
2017,08,16,12,20,17.60
2017,08,16,12,21,17.60
2017,08,16,12,22,17.60
2017,08,16,12,23,17.60
2017,08,16,12,24,17.60
2017,08,16,12,25,17.60
2017,08,16,12,26,17.60
2017,08,16,12,27,17.60
2017,08,16,12,28,17.60
2017,08,16,12,29,17.60
2017,08,16,12,30,17.60
2017,08,16,12,31,17.60
2017,08,16,12,32,17.60
2017,08,16,12,33,17.60
2017,08,16,12,34,17.70
2017,08,16,12,35,17.80
2017,08,16,12,36,17.80
2017,08,16,12,37,17.80
2017,08,16,12,38,17.90
2017,08,16,12,39,17.90
2017,08,16,12,40,17.90
2017,08,16,12,41,17.90
2017,08,16,12,42,18.00
2017,08,16,12,43,18.10
2017,08,16,12,44,18.10
2017,08,16,12,45,18.10
2017,08,16,12,46,18.10
2017,08,16,12,47,18.00
2017,08,16,12,48,17.90
2017,08,16,12,49,17.90
2017,08,16,12,50,17.90
2017,08,16,12,51,17.90
2017,08,16,12,52,18.00
2017,08,16,12,53,18.10
2017,08,16,12,54,18.10
2017,08,16,12,55,18.20
2017,08,16,12,56,18.20
2017,08,16,12,57,18.20
2017,08,16,12,58,18.20
2017,08,16,12,59,18.20
2017,08,16,13,00,18.20
2017,08,16,13,01,18.20
2017,08,16,13,02,18.30
2017,08,16,13,03,18.30
2017,08,16,13,04,18.30
2017,08,16,13,05,18.30
2017,08,16,13,06,18.30
2017,08,16,13,07,18.30
2017,08,16,13,08,18.40
2017,08,16,13,09,18.50
2017,08,16,13,10,18.50
2017,08,16,13,11,18.60
2017,08,16,13,12,18.70
2017,08,16,13,13,18.90
2017,08,16,13,14,18.90
2017,08,16,13,15,18.90
2017,08,16,13,16,19.00
2017,08,16,13,17,19.10
2017,08,16,13,18,19.10
2017,08,16,13,19,19.20
2017,08,16,13,20,19.10
2017,08,16,13,21,19.10
2017,08,16,13,22,19.10
2017,08,16,13,23,19.10
2017,08,16,13,24,19.10
2017,08,16,13,25,19.10
2017,08,16,13,26,19.10
2017,08,16,13,27,19.10
2017,08,16,13,28,19.10
2017,08,16,13,29,19.30
2017,08,16,13,30,19.50
2017,08,16,13,31,19.70
2017,08,16,13,32,19.70
2017,08,16,13,33,19.70
2017,08,16,13,34,19.70
2017,08,16,13,35,19.80
2017,08,16,13,36,19.90
2017,08,16,13,37,19.90
2017,08,16,13,38,19.90
2017,08,16,13,39,19.90
2017,08,16,13,40,19.90
2017,08,16,13,41,19.90
2017,08,16,13,42,20.00
2017,08,16,13,43,20.10
2017,08,16,13,44,20.10
2017,08,16,13,45,20.10
2017,08,16,13,46,20.10
2017,08,16,13,47,20.10
2017,08,16,13,48,20.00
2017,08,16,13,49,20.00
2017,08,16,13,50,20.10
2017,08,16,13,51,20.20
2017,08,16,13,52,20.20
2017,08,16,13,53,20.20
2017,08,16,13,54,20.20
2017,08,16,13,55,20.20
2017,08,16,13,56,20.20
2017,08,16,13,57,20.20
2017,08,16,13,58,20.20
2017,08,16,13,59,20.30
2017,08,16,14,00,20.40
2017,08,16,14,01,20.50
2017,08,16,14,02,20.50
2017,08,16,14,03,20.60
2017,08,16,14,04,20.50
2017,08,16,14,05,20.50
2017,08,16,14,06,20.60
2017,08,16,14,07,20.60
2017,08,16,14,08,20.60
2017,08,16,14,09,20.70
2017,08,16,14,10,20.70
2017,08,16,14,11,20.80
2017,08,16,14,12,20.90
2017,08,16,14,13,20.80
2017,08,16,14,14,20.70
2017,08,16,14,15,20.70
2017,08,16,14,16,20.60
2017,08,16,14,17,20.70
2017,08,16,14,18,20.70
2017,08,16,14,19,20.60
2017,08,16,14,20,20.60
2017,08,16,14,21,20.60
2017,08,16,14,22,20.60
2017,08,16,14,23,20.60
2017,08,16,14,24,20.50
2017,08,16,14,25,20.50
2017,08,16,14,26,20.50
2017,08,16,14,27,20.50
2017,08,16,14,28,20.60
2017,08,16,14,29,20.70
2017,08,16,14,30,20.80
2017,08,16,14,31,20.80
2017,08,16,14,32,20.80
2017,08,16,14,33,20.80
2017,08,16,14,34,20.70
2017,08,16,14,35,20.70
2017,08,16,14,36,20.70
2017,08,16,14,37,20.70
2017,08,16,14,38,20.80
2017,08,16,14,39,20.90
2017,08,16,14,40,20.90
2017,08,16,14,41,21.00
2017,08,16,14,42,21.00
2017,08,16,14,43,21.00
2017,08,16,14,44,21.10
2017,08,16,14,45,21.10
2017,08,16,14,46,21.10
2017,08,16,14,47,21.00
2017,08,16,14,48,21.00
2017,08,16,14,49,20.90
2017,08,16,14,50,20.80
2017,08,16,14,51,20.90
2017,08,16,14,52,20.90
2017,08,16,14,53,20.90
2017,08,16,14,54,21.00
2017,08,16,14,55,21.00
2017,08,16,14,56,21.10
2017,08,16,14,57,21.10
2017,08,16,14,58,21.20
2017,08,16,14,59,21.20
2017,08,16,15,00,21.30
2017,08,16,15,01,21.30
2017,08,16,15,02,21.30
2017,08,16,15,03,21.30
2017,08,16,15,04,21.40
2017,08,16,15,05,21.40
2017,08,16,15,06,21.50
2017,08,16,15,07,21.60
2017,08,16,15,08,21.60
2017,08,16,15,09,21.60
2017,08,16,15,10,21.60
2017,08,16,15,11,21.60
2017,08,16,15,12,21.60
2017,08,16,15,13,21.60
2017,08,16,15,14,21.70
2017,08,16,15,15,21.70
2017,08,16,15,16,21.60
2017,08,16,15,17,21.60
2017,08,16,15,18,21.60
2017,08,16,15,19,21.60
2017,08,16,15,20,21.60
2017,08,16,15,21,21.60
2017,08,16,15,22,21.50
2017,08,16,15,23,21.40
2017,08,16,15,24,21.40
2017,08,16,15,25,21.40
2017,08,16,15,26,21.30
2017,08,16,15,27,21.30
2017,08,16,15,28,21.30
2017,08,16,15,29,21.40
2017,08,16,15,30,21.50
2017,08,16,15,31,21.60
2017,08,16,15,32,21.60
2017,08,16,15,33,21.60
2017,08,16,15,34,21.60
2017,08,16,15,35,21.60
2017,08,16,15,36,21.50
2017,08,16,15,37,21.40
2017,08,16,15,38,21.30
2017,08,16,15,39,21.30
2017,08,16,15,40,21.30
2017,08,16,15,41,21.30
2017,08,16,15,42,21.30
2017,08,16,15,43,21.20
2017,08,16,15,44,21.20
2017,08,16,15,45,21.20
2017,08,16,15,46,21.20
2017,08,16,15,47,21.30
2017,08,16,15,48,21.30
2017,08,16,15,49,21.30
2017,08,16,15,50,21.30
2017,08,16,15,51,21.30
2017,08,16,15,52,21.40
2017,08,16,15,53,21.50
2017,08,16,15,54,21.60
2017,08,16,15,55,21.50
2017,08,16,15,56,21.40
2017,08,16,15,57,21.40
2017,08,16,15,58,21.50
2017,08,16,15,59,21.60
2017,08,16,16,00,21.60
2017,08,16,16,01,21.60
2017,08,16,16,02,21.50
2017,08,16,16,03,21.40
2017,08,16,16,04,21.40
2017,08,16,16,05,21.30
2017,08,16,16,06,21.40
2017,08,16,16,07,21.50
2017,08,16,16,08,21.60
2017,08,16,16,09,21.60
2017,08,16,16,10,21.60
2017,08,16,16,11,21.60
2017,08,16,16,12,21.60
2017,08,16,16,13,21.60
2017,08,16,16,14,21.60
2017,08,16,16,15,21.60
2017,08,16,16,16,21.60
2017,08,16,16,17,21.70
2017,08,16,16,18,21.70
2017,08,16,16,19,21.70
2017,08,16,16,20,21.60
2017,08,16,16,21,21.60
2017,08,16,16,22,21.60
2017,08,16,16,23,21.60
2017,08,16,16,24,21.70
2017,08,16,16,25,21.70
2017,08,16,16,26,21.80
2017,08,16,16,27,21.90
2017,08,16,16,28,21.90
2017,08,16,16,29,22.00
2017,08,16,16,30,22.00
2017,08,16,16,31,22.10
2017,08,16,16,32,22.20
2017,08,16,16,33,22.30
2017,08,16,16,34,22.30
2017,08,16,16,35,22.40
2017,08,16,16,36,22.40
2017,08,16,16,37,22.40
2017,08,16,16,38,22.40
2017,08,16,16,39,22.40
2017,08,16,16,40,22.30
2017,08,16,16,41,22.30
2017,08,16,16,42,22.30
2017,08,16,16,43,22.20
2017,08,16,16,44,22.20
2017,08,16,16,45,22.10
2017,08,16,16,46,22.00
2017,08,16,16,47,21.90
2017,08,16,16,48,21.90
2017,08,16,16,49,21.80
2017,08,16,16,50,21.80
2017,08,16,16,51,21.80
2017,08,16,16,52,21.80
2017,08,16,16,53,21.80
2017,08,16,16,54,21.80
2017,08,16,16,55,21.80
2017,08,16,16,56,21.80
2017,08,16,16,57,21.80
2017,08,16,16,58,21.80
2017,08,16,16,59,21.80
2017,08,16,17,00,21.80
2017,08,16,17,01,21.80
2017,08,16,17,02,21.70
2017,08,16,17,03,21.70
2017,08,16,17,04,21.70
2017,08,16,17,05,21.70
2017,08,16,17,06,21.80
2017,08,16,17,07,21.80
2017,08,16,17,08,21.80
2017,08,16,17,09,21.80
2017,08,16,17,10,21.80
2017,08,16,17,11,21.80
2017,08,16,17,12,21.70
2017,08,16,17,13,21.60
2017,08,16,17,14,21.60
2017,08,16,17,15,21.60
2017,08,16,17,16,21.60
2017,08,16,17,17,21.60
2017,08,16,17,18,21.60
2017,08,16,17,19,21.60
2017,08,16,17,20,21.60
2017,08,16,17,21,21.60
2017,08,16,17,22,21.60
2017,08,16,17,23,21.50
2017,08,16,17,24,21.40
2017,08,16,17,25,21.30
2017,08,16,17,26,21.30
2017,08,16,17,27,21.30
2017,08,16,17,28,21.30
2017,08,16,17,29,21.30
2017,08,16,17,30,21.30
2017,08,16,17,31,21.30
2017,08,16,17,32,21.50
2017,08,16,17,33,21.60
2017,08,16,17,34,21.60
2017,08,16,17,35,21.60
2017,08,16,17,36,21.60
2017,08,16,17,37,21.60
2017,08,16,17,38,21.60
2017,08,16,17,39,21.60
2017,08,16,17,40,21.60
2017,08,16,17,41,21.70
2017,08,16,17,42,21.70
2017,08,16,17,43,21.70
2017,08,16,17,44,21.60
2017,08,16,17,45,21.60
2017,08,16,17,46,21.60
2017,08,16,17,47,21.60
2017,08,16,17,48,21.60
2017,08,16,17,49,21.60
2017,08,16,17,50,21.60
2017,08,16,17,51,21.40
2017,08,16,17,52,21.40
2017,08,16,17,53,21.40
2017,08,16,17,54,21.40
2017,08,16,17,55,21.30
2017,08,16,17,56,21.30
2017,08,16,17,57,21.30
2017,08,16,17,58,21.30
2017,08,16,17,59,21.30
2017,08,16,18,00,21.30
2017,08,16,18,01,21.40
2017,08,16,18,02,21.50
2017,08,16,18,03,21.60
2017,08,16,18,04,21.60
2017,08,16,18,05,21.60
2017,08,16,18,06,21.60
2017,08,16,18,07,21.50
2017,08,16,18,08,21.40
2017,08,16,18,09,21.40
2017,08,16,18,10,21.40
2017,08,16,18,11,21.40
2017,08,16,18,12,21.40
2017,08,16,18,13,21.50
2017,08,16,18,14,21.60
2017,08,16,18,15,21.60
2017,08,16,18,16,21.60
2017,08,16,18,17,21.60
2017,08,16,18,18,21.60
2017,08,16,18,19,21.60
2017,08,16,18,20,21.50
2017,08,16,18,21,21.40
2017,08,16,18,22,21.40
2017,08,16,18,23,21.40
2017,08,16,18,24,21.40
2017,08,16,18,25,21.40
2017,08,16,18,26,21.40
2017,08,16,18,27,21.30
2017,08,16,18,28,21.30
2017,08,16,18,29,21.30
2017,08,16,18,30,21.30
2017,08,16,18,31,21.30
2017,08,16,18,32,21.30
2017,08,16,18,33,21.30
2017,08,16,18,34,21.30
2017,08,16,18,35,21.30
2017,08,16,18,36,21.30
2017,08,16,18,37,21.30
2017,08,16,18,38,21.30
2017,08,16,18,39,21.30
2017,08,16,18,40,21.30
2017,08,16,18,41,21.30
2017,08,16,18,42,21.30
2017,08,16,18,43,21.30
2017,08,16,18,44,21.30
2017,08,16,18,45,21.30
2017,08,16,18,46,21.30
2017,08,16,18,47,21.30
2017,08,16,18,48,21.30
2017,08,16,18,49,21.30
2017,08,16,18,50,21.30
2017,08,16,18,51,21.30
2017,08,16,18,52,21.30
2017,08,16,18,53,21.30
2017,08,16,18,54,21.30
2017,08,16,18,55,21.30
2017,08,16,18,56,21.30
2017,08,16,18,57,21.30
2017,08,16,18,58,21.30
2017,08,16,18,59,21.30
2017,08,16,19,00,21.20
2017,08,16,19,01,21.20
2017,08,16,19,02,21.20
2017,08,16,19,03,21.20
2017,08,16,19,04,21.10
2017,08,16,19,05,21.10
2017,08,16,19,06,21.10
2017,08,16,19,07,21.00
2017,08,16,19,08,21.00
2017,08,16,19,09,21.00
2017,08,16,19,10,21.00
2017,08,16,19,11,20.90
2017,08,16,19,12,20.90
2017,08,16,19,13,20.90
2017,08,16,19,14,20.80
2017,08,16,19,15,20.80
2017,08,16,19,16,20.80
2017,08,16,19,17,20.70
2017,08,16,19,18,20.70
2017,08,16,19,19,20.70
2017,08,16,19,20,20.70
2017,08,16,19,21,20.60
2017,08,16,19,22,20.60
2017,08,16,19,23,20.60
2017,08,16,19,24,20.60
2017,08,16,19,25,20.60
2017,08,16,19,26,20.60
2017,08,16,19,27,20.60
2017,08,16,19,28,20.60
2017,08,16,19,29,20.50
2017,08,16,19,30,20.50
2017,08,16,19,31,20.50
2017,08,16,19,32,20.50
2017,08,16,19,33,20.50